[Iaude] MPEC K82: 2020 KO1 [a=1.99,e=0.49,i=1.9,H=25.0]

mpec at marsden.cfa.harvard.edu mpec at marsden.cfa.harvard.edu
Wed May 20 02:22:22 EDT 2020


M.P.E.C. 2020-K82                                  Issued 2020 May 20, 06:20 UT

     The Minor Planet Electronic Circulars contain information on unusual
         minor planets and routine data on comets.  They are published
    on behalf of Division F of the International Astronomical Union by the
          Minor Planet Center, Smithsonian Astrophysical Observatory,
                          Cambridge, MA 02138, U.S.A.

             Prepared using the Tamkin Foundation Computer Network

                              MPC at CFA.HARVARD.EDU
            URL https://www.minorplanetcenter.net/    ISSN 1523-6714

                                    2020 KO1                                    


Observations:
     K20K01O  C2020 05 12.35301214 43 34.644+02 50 17.53         21.3 GVEK082F52
     K20K01O  C2020 05 12.36475414 43 35.977+02 50 35.55         21.6 GVEK082F52
     K20K01O  C2020 05 12.36670214 43 36.212+02 50 37.97         21.0 GVEK082F52
     K20K01O  C2020 05 17.41860414 58 42.883+05 16 25.52         20.7 GVEK082F52
     K20K01O  C2020 05 17.42915914 58 44.868+05 16 45.89         21.8 GVEK082F52
     K20K01O  C2020 05 17.45023614 58 48.886+05 17 27.51         20.5 GVEK082F52
     K20K01O* C2020 05 19.41041315 06 56.457+06 25 46.34         20.72wUEK082F52
     K20K01O  C2020 05 19.42226515 06 59.219+06 26 12.41         21.05wUEK082F52
     K20K01O  C2020 05 19.44419815 07 04.371+06 27 01.05         20.91wUEK082F52
     K20K01O  C2020 05 19.45609815 07 07.174+06 27 27.19         21.33wUEK082F52
     K20K01O pC2020 05 19.98066115 09 35.24 +06 46 32.0          20.9 GVEK082L01
     K20K01O pC2020 05 19.98302715 09 35.91 +06 46 37.9          20.7 GVEK082L01
     K20K01O KC2020 05 19.98538915 09 36.49 +06 46 43.1          20.5 GVEK082L01
     K20K01O KC2020 05 19.98774115 09 37.13 +06 46 47.7          20.8 GVEK082L01
     K20K01O KC2020 05 19.99008815 09 37.65 +06 46 52.8          20.6 GVEK082L01
     K20K01O KC2020 05 20.01804 15 09 46.02 +06 47 59.0          20.4 GUEK082I93
     K20K01O KC2020 05 20.02292 15 09 47.37 +06 48 10.2          20.2 GUEK082I93
     K20K01O KC2020 05 20.02748 15 09 48.49 +06 48 21.1          20.3 GUEK082I93
     K20K01O KC2020 05 20.20282 15 10 42.71 +06 55 14.9          20.9 GVEK082734
     K20K01O  C2020 05 20.20356 15 10 44.44 +06 55 25.5          20.2 GVEK082I52
     K20K01O  C2020 05 20.20482 15 10 44.75 +06 55 28.5          20.9 GVEK082I52
     K20K01O  C2020 05 20.20608 15 10 45.07 +06 55 31.1          21.0 GVEK082I52
     K20K01O KC2020 05 20.20617 15 10 43.44 +06 55 22.6          21.4 GVEK082734
     K20K01O  C2020 05 20.20734 15 10 45.43 +06 55 34.1          21.2 GVEK082I52
     K20K01O KC2020 05 20.21612 15 10 46.12 +06 55 44.3          21.0 GVEK082734
     K20K01O KC2020 05 20.22028 15 10 47.28 +06 55 54.5          21.0 GVEK082734
     K20K01O KC2020 05 20.22443 15 10 48.42 +06 56 05.5          21.2 GVEK082734

Observer details:
734 Farpoint Observatory, Eskridge.  Observers G. Hug, D. Cromer, D. Goodin.  
    Measurer D. Cromer.  0.7-m reflector + CCD.
F52 Pan-STARRS 2, Haleakala.  Observers J. Bulger, K. Chambers, T. Dukes, T. 
   Lowe, A. Schultz, M. Willman.  Measurers S. Chastel, M. Huber, Y. 
   Ramanjooloo, R. Wainscoat, R. Weryk, K. Chambers, T. de Boer, L. Denneau, J. 
   Fairlamb, H. Flewelling, C.-C. Lin, E. Magnier.  1.8-m Ritchey-Chretien + 
   CCD.
I52 Steward Observatory, Mt. Lemmon Station.  Observer T. A. Pruyne.  Measurers 
   E. J. Christensen, G. A. Farneth, D. C. Fuls, A. R. Gibbs, A. D. Grauer, H. 
   Groeller, R. A. Kowalski, S. M. Larson, G. J. Leonard, T. A. Pruyne, D. 
   Rankin, R. L. Seaman, F. C. Shelly, K. W. Wierzchos.  1.0-m reflector + CCD.
I93 St Pardon de Conques.  Observer F. Losse.  0.40-m f/3.7 reflector + CCD.
L01 Visnjan Observatory, Tican.  Observer K. Korlevic.  1.0-m f/2.9 reflector + 
   CCD.

Orbital elements:
2020 KO1                                                 Earth MOID = 0.0204 AU
Epoch 2020 May 17.0 TT = JDT 2458986.5                  Bell                    
M 347.89068              (2000.0)            P               Q                  
n   0.35136204     Peri.  140.08317     +0.05280476     +0.99831931             
a   1.9889910      Node   132.92939     -0.92432512     +0.05791295             
e   0.4852866      Incl.    1.86892     -0.37793482     -0.00215484             
P   2.81           H   25.03          G   0.15           U   8                  
Residuals in seconds of arc
200512 F52  0.1+  0.2+    200519 F52  0.1+  0.1+    200520 734  0.0-  0.3+
200512 F52  0.1-  0.2+    200519 L01  0.2+  0.3-    200520 I52  0.1+  0.0-
200512 F52  0.1+  0.4-    200519 L01  1.0+  0.2+    200520 I52  0.2-  0.0+
200517 F52  0.0-  0.2+    200519 L01  0.5+  0.0+    200520 I52  0.3-  0.4-
200517 F52  0.2-  0.2-    200519 L01  0.9+  0.7-    200520 734  2.2-  0.2+
200517 F52  0.1+  0.0+    200519 L01  0.4-  1.0-    200520 I52  0.1+  0.3-
200519 F52  0.0+  0.1+    200520 I93  0.6-  0.1-    200520 734  1.1-  1.4-
200519 F52  0.1-  0.1-    200520 I93  0.6+  0.1-    200520 734  0.1-  0.9-
200519 F52  0.1+  0.2+    200520 I93  0.4-  0.4+    200520 734  0.7+  0.4+
Ephemeris:
2020 KO1                 a,e,i = 1.99, 0.49, 2                   q = 1.0238
Date    TT    R. A. (2000) Decl.     Delta      r    Elong.  Phase     V
2020 04 20    14 17 45.7 -03 41 15   0.2387  1.2405   169.9     8.2    23.0
...
2020 05 05    14 30 25.5 +00 09 06   0.1537  1.1564   163.0    14.8    22.1
...
2020 05 13    14 45 07.7 +03 07 21   0.1155  1.1176   156.8    20.8    21.6
...
2020 05 19    15 05 06.8 +06 11 11   0.08970 1.0920   152.4    25.5    21.2
2020 05 20    15 09 42.0 +06 48 19   0.08564 1.0881   151.6    26.2    21.1
2020 05 21    15 14 46.5 +07 27 49   0.08167 1.0843   150.9    27.0    21.0
...
2020 05 27    16 00 01.8 +12 28 45   0.05988 1.0634   146.0    32.2    20.4
...
2020 06 04    18 15 48.4 +21 30 07   0.04111 1.0420   131.2    47.1    20.0
...
2020 06 19    23 01 24.5 +15 12 19   0.06526 1.0238    94.9    81.5    22.0

M. P. C. Staff               (C) Copyright 2020 MPC           M.P.E.C. 2020-K82




More information about the Iaude mailing list